When you browse on this site, cookies collect data to enhance your experience and personalize the content and advertising you see.
Visit our Privacy Policy to learn more. By continuing to use the site, you agree to this use of cookies and data.
EN

Hourly Weather Alhimkovo

Today, 13 August, Thursday

Time Temperature Precipitation Wind Pressure Humidity
00:00 +11°C° 0 mm 3 mps 745 mmHg 78%
01:00 +11°C° 0 mm 3 mps 745 mmHg 81%
02:00 +10°C° 0 mm 3 mps 746 mmHg 85%
03:00 +10°C° 0.1 mm 3 mps 745 mmHg 86%
04:00 +9°C° 0.1 mm 3 mps 745 mmHg 88%
05:00 +9°C° 0.1 mm 3 mps 745 mmHg 89%
06:00 +10°C° 0 mm 3 mps 745 mmHg 86%
07:00 +10°C° 0 mm 3 mps 745 mmHg 83%
08:00 +11°C° 0 mm 3 mps 745 mmHg 79%
09:00 +12°C° 0 mm 3 mps 745 mmHg 73%
10:00 +13°C° 0 mm 3 mps 745 mmHg 67%
11:00 +14°C° 0 mm 4 mps 745 mmHg 61%
12:00 +16°C° 0 mm 3 mps 745 mmHg 60%
13:00 +16°C° 0 mm 3 mps 745 mmHg 58%
14:00 +18°C° 0 mm 3 mps 746 mmHg 54%
15:00 +17°C° 0.1 mm 3 mps 745 mmHg 60%
16:00 +16°C° 0.1 mm 3 mps 745 mmHg 66%
17:00 +14°C° 0.1 mm 3 mps 745 mmHg 72%
18:00 +14°C° 0 mm 2 mps 745 mmHg 75%
19:00 +13°C° 0 mm 2 mps 745 mmHg 78%
20:00 +13°C° 0 mm 2 mps 745 mmHg 81%
21:00 +10°C° 0 mm 2 mps 745 mmHg 86%
22:00 +9°C° 0 mm 2 mps 746 mmHg 90%
23:00 +8°C° 0 mm 2 mps 746 mmHg 95%

Tomorrow, 14 August, Friday

Time Temperature Precipitation Wind Pressure Humidity
00:00 +8°C° 0 mm 2 mps 746 mmHg 95%
01:00 +8°C° 0 mm 2 mps 746 mmHg 96%
02:00 +7°C° 0 mm 2 mps 746 mmHg 96%
03:00 +7°C° 0 mm 2 mps 746 mmHg 96%
04:00 +7°C° 0 mm 2 mps 746 mmHg 96%
05:00 +7°C° 0 mm 2 mps 746 mmHg 96%
06:00 +9°C° 0 mm 2 mps 747 mmHg 87%
07:00 +12°C° 0 mm 2 mps 747 mmHg 79%
08:00 +13°C° 0 mm 3 mps 747 mmHg 70%
09:00 +14°C° 0 mm 3 mps 747 mmHg 64%
10:00 +16°C° 0 mm 3 mps 747 mmHg 59%
11:00 +17°C° 0 mm 3 mps 747 mmHg 53%
12:00 +18°C° 0 mm 3 mps 747 mmHg 52%
13:00 +18°C° 0 mm 3 mps 747 mmHg 51%
14:00 +19°C° 0 mm 2 mps 747 mmHg 50%
15:00 +19°C° 0 mm 2 mps 746 mmHg 53%
16:00 +18°C° 0 mm 2 mps 746 mmHg 55%
17:00 +19°C° 0 mm 1 mps 746 mmHg 58%
18:00 +16°C° 0 mm 1 mps 746 mmHg 65%
19:00 +14°C° 0 mm 1 mps 746 mmHg 71%
20:00 +11°C° 0 mm 0 mps 746 mmHg 77%
21:00 +12°C° 0 mm 1 mps 747 mmHg 78%
22:00 +12°C° 0 mm 1 mps 747 mmHg 79%
23:00 +12°C° 0 mm 1 mps 747 mmHg 80%

Day after tomorrow, 15 August, Saturday

Time Temperature Precipitation Wind Pressure Humidity
00:00 +11°C° 0 mm 1 mps 747 mmHg 82%
01:00 +11°C° 0 mm 1 mps 747 mmHg 84%
02:00 +11°C° 0 mm 1 mps 747 mmHg 86%
03:00 +11°C° 0 mm 1 mps 747 mmHg 85%
04:00 +11°C° 0 mm 1 mps 747 mmHg 84%
05:00 +12°C° 0 mm 1 mps 747 mmHg 84%
06:00 +13°C° 0 mm 1 mps 747 mmHg 81%
07:00 +14°C° 0 mm 1 mps 747 mmHg 79%
08:00 +15°C° 0 mm 1 mps 747 mmHg 77%
09:00 +16°C° 0.1 mm 1 mps 747 mmHg 75%
10:00 +16°C° 0.1 mm 1 mps 747 mmHg 73%
11:00 +18°C° 0.1 mm 1 mps 747 mmHg 72%
12:00 +19°C° 0.1 mm 1 mps 747 mmHg 69%
13:00 +18°C° 0.1 mm 2 mps 746 mmHg 67%
14:00 +19°C° 0.1 mm 2 mps 746 mmHg 65%
15:00 +17°C° 0 mm 2 mps 746 mmHg 71%
16:00 +16°C° 0 mm 1 mps 746 mmHg 78%
17:00 +15°C° 0 mm 1 mps 745 mmHg 85%
18:00 +15°C° 0 mm 1 mps 745 mmHg 88%
19:00 +14°C° 0 mm 1 mps 745 mmHg 90%
20:00 +14°C° 0 mm 1 mps 745 mmHg 93%
21:00 +14°C° 0 mm 1 mps 745 mmHg 94%
22:00 +14°C° 0 mm 1 mps 745 mmHg 94%
23:00 +14°C° 0 mm 1 mps 745 mmHg 95%

16 August, Sunday

Time Temperature Precipitation Wind Pressure Humidity
00:00 +14°C° 0.1 mm 1 mps 744 mmHg 96%
01:00 +14°C° 0.1 mm 1 mps 744 mmHg 96%
02:00 +14°C° 0.1 mm 1 mps 744 mmHg 97%
03:00 +13°C° 0 mm 1 mps 744 mmHg 97%
04:00 +13°C° 0 mm 1 mps 743 mmHg 98%
05:00 +13°C° 0 mm 1 mps 743 mmHg 98%
06:00 +15°C° 0 mm 1 mps 743 mmHg 94%
07:00 +16°C° 0 mm 2 mps 743 mmHg 90%
08:00 +18°C° 0 mm 2 mps 743 mmHg 87%
09:00 +20°C° 0.1 mm 2 mps 743 mmHg 79%
10:00 +21°C° 0.1 mm 2 mps 743 mmHg 71%
11:00 +24°C° 0.1 mm 3 mps 743 mmHg 63%
12:00 +25°C° 0.2 mm 3 mps 743 mmHg 61%
13:00 +25°C° 0.2 mm 4 mps 742 mmHg 59%
14:00 +25°C° 0.2 mm 4 mps 742 mmHg 57%
15:00 +25°C° 0 mm 4 mps 742 mmHg 60%
16:00 +24°C° 0 mm 3 mps 742 mmHg 64%
17:00 +24°C° 0 mm 3 mps 742 mmHg 68%
18:00 +21°C° 0.1 mm 2 mps 742 mmHg 76%
19:00 +19°C° 0.1 mm 2 mps 742 mmHg 83%
20:00 +18°C° 0.1 mm 2 mps 742 mmHg 90%
21:00 +17°C° 0 mm 2 mps 742 mmHg 92%
22:00 +17°C° 0 mm 2 mps 742 mmHg 93%
23:00 +16°C° 0 mm 2 mps 742 mmHg 94%

17 August, Monday

Time Temperature Precipitation Wind Pressure Humidity
00:00 +16°C° 0 mm 2 mps 742 mmHg 95%
01:00 +16°C° 0 mm 2 mps 742 mmHg 96%
02:00 +15°C° 0 mm 2 mps 742 mmHg 96%
03:00 +15°C° 0.1 mm 2 mps 742 mmHg 97%
04:00 +15°C° 0.1 mm 2 mps 742 mmHg 97%
05:00 +15°C° 0.1 mm 1 mps 742 mmHg 97%
06:00 +16°C° 0 mm 1 mps 742 mmHg 91%
07:00 +19°C° 0 mm 1 mps 742 mmHg 84%
08:00 +20°C° 0 mm 1 mps 742 mmHg 78%
09:00 +21°C° 0.2 mm 1 mps 742 mmHg 76%
10:00 +21°C° 0.2 mm 1 mps 742 mmHg 73%
11:00 +22°C° 0.2 mm 1 mps 742 mmHg 71%
12:00 +22°C° 0.5 mm 1 mps 742 mmHg 71%
13:00 +22°C° 0.5 mm 1 mps 742 mmHg 71%
14:00 +23°C° 0.5 mm 2 mps 741 mmHg 70%
15:00 +22°C° 0.1 mm 1 mps 741 mmHg 71%
16:00 +22°C° 0.1 mm 1 mps 741 mmHg 72%
17:00 +22°C° 0.1 mm 1 mps 741 mmHg 73%
18:00 +20°C° 0.1 mm 1 mps 741 mmHg 77%
19:00 +18°C° 0.1 mm 1 mps 741 mmHg 81%
20:00 +16°C° 0.1 mm 1 mps 741 mmHg 85%
21:00 +15°C° 0 mm 1 mps 741 mmHg 84%
22:00 +14°C° 0 mm 1 mps 741 mmHg 84%
23:00 +13°C° 0 mm 1 mps 741 mmHg 84%

18 August, Tuesday

Time Temperature Precipitation Wind Pressure Humidity
00:00 +12°C° 0 mm 1 mps 741 mmHg 85%
01:00 +12°C° 0 mm 1 mps 741 mmHg 86%
02:00 +11°C° 0 mm 1 mps 741 mmHg 88%
03:00 +11°C° 0 mm 1 mps 741 mmHg 86%
04:00 +11°C° 0 mm 1 mps 741 mmHg 84%
05:00 +10°C° 0 mm 1 mps 741 mmHg 83%
06:00 +12°C° 0 mm 2 mps 741 mmHg 75%
07:00 +14°C° 0 mm 2 mps 741 mmHg 68%
08:00 +16°C° 0 mm 2 mps 741 mmHg 61%
09:00 +17°C° 0 mm 2 mps 741 mmHg 56%
10:00 +19°C° 0 mm 2 mps 741 mmHg 51%
11:00 +20°C° 0 mm 2 mps 741 mmHg 45%
12:00 +21°C° 0 mm 2 mps 741 mmHg 44%
13:00 +22°C° 0 mm 1 mps 741 mmHg 43%
14:00 +23°C° 0 mm 1 mps 740 mmHg 42%
15:00 +22°C° 0 mm 1 mps 740 mmHg 48%
16:00 +22°C° 0 mm 1 mps 740 mmHg 53%
17:00 +22°C° 0 mm 1 mps 740 mmHg 58%
18:00 +19°C° 0 mm 1 mps 740 mmHg 62%
19:00 +16°C° 0 mm 1 mps 740 mmHg 66%
20:00 +14°C° 0 mm 1 mps 740 mmHg 70%
21:00 +14°C° 0 mm 1 mps 740 mmHg 73%
22:00 +13°C° 0 mm 1 mps 740 mmHg 75%
23:00 +13°C° 0 mm 1 mps 741 mmHg 77%
Show more